,,Stat5,,Stat1,,Stat2,,Stat3,,Stat4,,Wind1,,Wind1,
time,status,PA1M_AVG,status,PR1M_SUM,status,RH1M_AVG,status,SR1M_AVG,status,TA1M_AVG,status,W1dAve1m,status,W1sAve1m,
2000-12-07, 00:00:00,VALID,917.462,VALID,0,VALID,95.3869,VALID,0,VALID,19.773,VALID,80,VALID,0.645833,
2000-12-07, 00:01:00,VALID,917.466,VALID,0,VALID,95.3678,VALID,0,VALID,19.7696,VALID,74,VALID,0.813978,
2000-12-07, 00:02:00,VALID,917.459,VALID,0,VALID,95.3551,VALID,0,VALID,19.7763,VALID,85,VALID,0.94807,
2000-12-07, 00:03:00,VALID,917.444,VALID,0,VALID,95.2712,VALID,0.0169808,VALID,19.7758,VALID,69,VALID,0.981641,
2000-12-07, 00:04:00,VALID,917.448,VALID,0,VALID,95.2648,VALID,-0.0679233,VALID,19.7837,VALID,62,VALID,0.545037,
2000-12-07, 00:05:00,VALID,917.465,VALID,0,VALID,95.2394,VALID,-0.101885,VALID,19.7939,VALID,1,VALID,0.519848,
2000-12-07, 00:06:00,VALID,917.456,VALID,0,VALID,95.2152,VALID,-0.118866,VALID,19.8034,VALID,322,VALID,0.0847356,
2000-12-07, 00:07:00,VALID,917.465,VALID,0,VALID,95.2406,VALID,-0.101885,VALID,19.8195,VALID,341,VALID,0.0647321,
2000-12-07, 00:08:00,VALID,917.454,VALID,0,VALID,95.2241,VALID,-0.118866,VALID,19.82,VALID,300,VALID,0.159455,
2000-12-07, 00:09:00,VALID,917.461,VALID,0,VALID,95.247,VALID,-0.101885,VALID,19.8165,VALID,291,VALID,0.510938,
2000-12-07, 00:10:00,VALID,917.452,VALID,0,VALID,95.3614,VALID,-0.101885,VALID,19.7875,VALID,277,VALID,0.490184,
2000-12-07, 00:11:00,VALID,917.443,VALID,0,VALID,95.4059,VALID,-0.101885,VALID,19.7614,VALID,271,VALID,0.249783,
2000-12-07, 00:12:00,VALID,917.4,VALID,0,VALID,95.4988,VALID,-0.101885,VALID,19.7355,VALID,275,VALID,0.16582,
2000-12-07, 00:13:00,VALID,917.4,VALID,0,VALID,95.5484,VALID,-0.101885,VALID,19.7392,VALID,276,VALID,0.263021,
2000-12-07, 00:14:00,VALID,917.385,VALID,0,VALID,95.5802,VALID,-0.0679233,VALID,19.7261,VALID,278,VALID,0.355674,
2000-12-07, 00:15:00,VALID,917.384,VALID,0,VALID,95.5471,VALID,-0.101885,VALID,19.7102,VALID,278,VALID,0.0843349,
2000-12-07, 00:16:00,VALID,917.382,VALID,0,VALID,95.6247,VALID,-0.101885,VALID,19.697,VALID,278,VALID,0,
2000-12-07, 00:17:00,VALID,917.366,VALID,0,VALID,95.776,VALID,-0.0509425,VALID,19.7124,VALID,278,VALID,0,
2000-12-07, 00:18:00,VALID,917.356,VALID,0,VALID,95.8548,VALID,-0.0849042,VALID,19.7355,VALID,278,VALID,0,
2000-12-07, 00:19:00,VALID,917.355,VALID,0,VALID,95.8116,VALID,-0.0169808,VALID,19.7435,VALID,278,VALID,0,
2000-12-07, 00:20:00,VALID,917.359,VALID,0,VALID,95.7887,VALID,0,VALID,19.7497,VALID,278,VALID,0,
2000-12-07, 00:21:00,VALID,917.355,VALID,0,VALID,95.7798,VALID,0,VALID,19.7467,VALID,278,VALID,0.212139,
2000-12-07, 00:22:00,VALID,917.342,VALID,0,VALID,95.8396,VALID,0,VALID,19.7628,VALID,166,VALID,0.191406,
2000-12-07, 00:23:00,VALID,917.324,VALID,0,VALID,95.9019,VALID,0.0169808,VALID,19.7626,VALID,102,VALID,0.559896,
2000-12-07, 00:24:00,VALID,917.308,VALID,0,VALID,95.893,VALID,0.0169808,VALID,19.7855,VALID,98,VALID,0.354235,
2000-12-07, 00:25:00,VALID,917.285,VALID,0,VALID,95.9489,VALID,0,VALID,19.8054,VALID,98,VALID,0,
2000-12-07, 00:26:00,VALID,917.266,VALID,0,VALID,95.9591,VALID,0,VALID,19.8014,VALID,98,VALID,0,
2000-12-07, 00:27:00,VALID,917.239,VALID,0,VALID,96.3139,VALID,0,VALID,19.8051,VALID,98,VALID,0,
2000-12-07, 00:28:00,VALID,917.242,VALID,0,VALID,96.4258,VALID,0,VALID,19.8242,VALID,98,VALID,0,
2000-12-07, 00:29:00,VALID,917.241,VALID,0,VALID,96.3647,VALID,0,VALID,19.8245,VALID,99,VALID,0.388622,
2000-12-07, 00:30:00,VALID,917.253,VALID,0,VALID,96.2083,VALID,0.0169808,VALID,19.8011,VALID,89,VALID,0.55736,
2000-12-07, 00:31:00,VALID,917.266,VALID,0,VALID,95.926,VALID,0,VALID,19.7683,VALID,83,VALID,0.172476,
2000-12-07, 00:32:00,VALID,917.26,VALID,0,VALID,95.8726,VALID,0.0169808,VALID,19.7693,VALID,83,VALID,0.0894326,
2000-12-07, 00:33:00,VALID,917.263,VALID,0,VALID,95.8803,VALID,0.0339617,VALID,19.7658,VALID,83,VALID,0.160657,
2000-12-07, 00:34:00,VALID,917.259,VALID,0,VALID,95.8548,VALID,0.0339617,VALID,19.7432,VALID,88,VALID,0.197656,
2000-12-07, 00:35:00,VALID,917.262,VALID,0,VALID,95.734,VALID,0,VALID,19.7174,VALID,80,VALID,0.744721,
2000-12-07, 00:36:00,VALID,917.255,VALID,0,VALID,95.7811,VALID,0.0169808,VALID,19.7111,VALID,78,VALID,0.611523,
2000-12-07, 00:37:00,VALID,917.241,VALID,0,VALID,95.8497,VALID,0,VALID,19.7047,VALID,87,VALID,0.178686,
2000-12-07, 00:38:00,VALID,917.228,VALID,0,VALID,95.8586,VALID,0,VALID,19.7015,VALID,87,VALID,0.0131579,
2000-12-07, 00:39:00,VALID,917.218,VALID,0,VALID,95.8752,VALID,0,VALID,19.7144,VALID,87,VALID,0,
2000-12-07, 00:40:00,VALID,917.205,VALID,0,VALID,95.8548,VALID,0.0169808,VALID,19.7109,VALID,87,VALID,0,
2000-12-07, 00:41:00,VALID,917.189,VALID,0,VALID,95.7951,VALID,0.0509425,VALID,19.6915,VALID,87,VALID,0,
2000-12-07, 00:42:00,VALID,917.172,VALID,0,VALID,95.8396,VALID,0,VALID,19.6878,VALID,87,VALID,0,
2000-12-07, 00:43:00,VALID,917.149,VALID,0,VALID,95.879,VALID,0,VALID,19.6783,VALID,90,VALID,0.122889,
2000-12-07, 00:44:00,VALID,917.166,VALID,0,VALID,95.9616,VALID,0.0169808,VALID,19.7012,VALID,91,VALID,0,
2000-12-07, 00:45:00,VALID,917.171,VALID,0,VALID,95.9209,VALID,0.0169808,VALID,19.6883,VALID,91,VALID,0.0010016,
2000-12-07, 00:46:00,VALID,917.18,VALID,0,VALID,95.8752,VALID,0,VALID,19.6816,VALID,91,VALID,0,
2000-12-07, 00:47:00,VALID,917.191,VALID,0,VALID,95.9159,VALID,0.0679233,VALID,19.6719,VALID,91,VALID,0,
2000-12-07, 00:48:00,VALID,917.194,VALID,0,VALID,95.9629,VALID,0.0169808,VALID,19.6555,VALID,91,VALID,0,
2000-12-07, 00:49:00,VALID,917.194,VALID,0,VALID,96.0392,VALID,0.0509425,VALID,19.6788,VALID,91,VALID,0,
2000-12-07, 00:50:00,VALID,917.221,VALID,0,VALID,96.1015,VALID,0.0339617,VALID,19.6816,VALID,91,VALID,0,
2000-12-07, 00:51:00,VALID,917.227,VALID,0,VALID,96.0519,VALID,0.0169808,VALID,19.6913,VALID,91,VALID,0,
2000-12-07, 00:52:00,VALID,917.222,VALID,0,VALID,96.0888,VALID,0.0339617,VALID,19.6883,VALID,91,VALID,0,
2000-12-07, 00:53:00,VALID,917.234,VALID,0,VALID,96.1511,VALID,0.0509425,VALID,19.6846,VALID,91,VALID,0,
2000-12-07, 00:54:00,VALID,917.211,VALID,0,VALID,96.2299,VALID,0.0169808,VALID,19.6915,VALID,91,VALID,0,
2000-12-07, 00:55:00,VALID,917.196,VALID,0,VALID,96.2541,VALID,0.0169808,VALID,19.6848,VALID,91,VALID,0,
2000-12-07, 00:56:00,VALID,917.16,VALID,0,VALID,96.3037,VALID,0.0509425,VALID,19.6883,VALID,91,VALID,0,
2000-12-07, 00:57:00,VALID,917.145,VALID,0,VALID,96.3698,VALID,0.0509425,VALID,19.6746,VALID,91,VALID,0,
2000-12-07, 00:58:00,VALID,917.108,VALID,0,VALID,96.4601,VALID,0.0339617,VALID,19.6749,VALID,91,VALID,0,
2000-12-07, 00:59:00,VALID,917.102,VALID,0,VALID,96.4843,VALID,0.0339617,VALID,19.6977,VALID,91,VALID,0,
2000-12-07, 01:00:00,VALID,917.086,VALID,0,VALID,96.4499,VALID,0.0339617,VALID,19.6816,VALID,91,VALID,0,
2000-12-07, 01:01:00,VALID,917.087,VALID,0,VALID,96.4372,VALID,0,VALID,19.6821,VALID,91,VALID,0,
2000-12-07, 01:02:00,VALID,917.068,VALID,0,VALID,96.4423,VALID,0.0169808,VALID,19.6883,VALID,91,VALID,0,
2000-12-07, 01:03:00,VALID,917.077,VALID,0,VALID,96.4703,VALID,0,VALID,19.6985,VALID,91,VALID,0,
2000-12-07, 01:04:00,VALID,917.066,VALID,0,VALID,96.5046,VALID,-0.0169808,VALID,19.695,VALID,91,VALID,0,
2000-12-07, 01:05:00,VALID,917.052,VALID,0,VALID,96.4703,VALID,-0.0169808,VALID,19.695,VALID,91,VALID,0,
2000-12-07, 01:06:00,VALID,917.058,VALID,0,VALID,96.4614,VALID,0.0169808,VALID,19.6818,VALID,91,VALID,0,
2000-12-07, 01:07:00,VALID,917.047,VALID,0,VALID,96.5364,VALID,0,VALID,19.6821,VALID,91,VALID,0,
2000-12-07, 01:08:00,VALID,917.053,VALID,0,VALID,96.5351,VALID,-0.0169808,VALID,19.6786,VALID,91,VALID,0,
2000-12-07, 01:09:00,VALID,917.033,VALID,0,VALID,96.6178,VALID,0,VALID,19.6622,VALID,91,VALID,0,
2000-12-07, 01:10:00,VALID,917.004,VALID,0,VALID,96.7805,VALID,0,VALID,19.6788,VALID,96,VALID,0.0495477,
2000-12-07, 01:11:00,VALID,916.957,VALID,0,VALID,96.8441,VALID,0,VALID,19.6918,VALID,123,VALID,0.496394,
2000-12-07, 01:12:00,VALID,916.936,VALID,0,VALID,96.764,VALID,0,VALID,19.6915,VALID,124,VALID,0.477796,
2000-12-07, 01:13:00,VALID,916.904,VALID,0,VALID,96.7869,VALID,0,VALID,19.6913,VALID,112,VALID,0.569511,
2000-12-07, 01:14:00,VALID,916.893,VALID,0,VALID,96.6686,VALID,0,VALID,19.6756,VALID,97,VALID,0.784766,
2000-12-07, 01:15:00,VALID,916.876,VALID,0,VALID,96.6496,VALID,0,VALID,19.6557,VALID,95,VALID,0.716005,
2000-12-07, 01:16:00,VALID,916.866,VALID,0,VALID,96.7538,VALID,0,VALID,19.6498,VALID,107,VALID,0.681055,
2000-12-07, 01:17:00,VALID,916.85,VALID,0,VALID,96.8085,VALID,0.0169808,VALID,19.6358,VALID,87,VALID,0.739984,
2000-12-07, 01:18:00,VALID,916.842,VALID,0,VALID,96.853,VALID,0,VALID,19.643,VALID,89,VALID,0.52241,
2000-12-07, 01:19:00,VALID,916.834,VALID,0,VALID,96.8149,VALID,-0.0169808,VALID,19.6363,VALID,85,VALID,0.64363,
2000-12-07, 01:20:00,VALID,916.829,VALID,0,VALID,96.806,VALID,0,VALID,19.6172,VALID,85,VALID,0.859375,
2000-12-07, 01:21:00,VALID,916.846,VALID,0,VALID,96.9382,VALID,0.0339617,VALID,19.6045,VALID,84,VALID,0.791066,
2000-12-07, 01:22:00,VALID,916.838,VALID,0,VALID,97.0336,VALID,0,VALID,19.6043,VALID,86,VALID,0.792188,
2000-12-07, 01:23:00,VALID,916.829,VALID,0,VALID,97.115,VALID,0,VALID,19.5978,VALID,90,VALID,0.936867,
2000-12-07, 01:24:00,VALID,916.833,VALID,0,VALID,97.2396,VALID,-0.0169808,VALID,19.5946,VALID,88,VALID,0.801758,
2000-12-07, 01:25:00,VALID,916.831,VALID,0,VALID,97.3388,VALID,-0.0169808,VALID,19.611,VALID,87,VALID,0.73137,
2000-12-07, 01:26:00,VALID,916.819,VALID,0,VALID,97.2917,VALID,0,VALID,19.6107,VALID,89,VALID,0.593956,
2000-12-07, 01:27:00,VALID,916.815,VALID,0,VALID,97.3083,VALID,0.0169808,VALID,19.5943,VALID,62,VALID,0.461538,
2000-12-07, 01:28:00,VALID,916.795,VALID,0,VALID,97.2765,VALID,-0.0169808,VALID,19.5817,VALID,87,VALID,0.577919,
2000-12-07, 01:29:00,VALID,916.772,VALID,0,VALID,97.3782,VALID,0,VALID,19.5986,VALID,62,VALID,0.629207,
2000-12-07, 01:30:00,VALID,916.789,VALID,0,VALID,97.3515,VALID,0.0169808,VALID,19.5685,VALID,28,VALID,0.399219,
2000-12-07, 01:31:00,VALID,916.797,VALID,0,VALID,97.4634,VALID,0.0169808,VALID,19.5884,VALID,37,VALID,0,
2000-12-07, 01:32:00,VALID,916.774,VALID,0,VALID,97.5346,VALID,0,VALID,19.614,VALID,107,VALID,0.117578,
2000-12-07, 01:33:00,VALID,916.748,VALID,0,VALID,97.6478,VALID,0,VALID,19.6269,VALID,95,VALID,0.542067,
2000-12-07, 01:34:00,VALID,916.743,VALID,0,VALID,97.8322,VALID,0,VALID,19.6818,VALID,93,VALID,0.393503,
2000-12-07, 01:35:00,VALID,916.752,VALID,0,VALID,97.9288,VALID,-0.0169808,VALID,19.7174,VALID,97,VALID,0.182292,
2000-12-07, 01:36:00,VALID,916.741,VALID,0,VALID,97.9377,VALID,0.0169808,VALID,19.7238,VALID,96,VALID,0,
2000-12-07, 01:37:00,VALID,916.728,VALID,0,VALID,97.9886,VALID,0,VALID,19.74,VALID,104,VALID,0.749199,
2000-12-07, 01:38:00,VALID,916.698,VALID,0,VALID,97.9466,VALID,0,VALID,19.737,VALID,95,VALID,1.09648,
2000-12-07, 01:39:00,VALID,916.667,VALID,0,VALID,97.8703,VALID,0,VALID,19.7074,VALID,92,VALID,1.23796,
2000-12-07, 01:40:00,VALID,916.666,VALID,0,VALID,97.822,VALID,0.0169808,VALID,19.6808,VALID,93,VALID,1.21855,
2000-12-07, 01:41:00,VALID,916.653,VALID,0,VALID,97.7978,VALID,0,VALID,19.652,VALID,93,VALID,1.07873,
2000-12-07, 01:42:00,VALID,916.644,VALID,0.2,VALID,97.705,VALID,-0.0169808,VALID,19.6237,VALID,86,VALID,1.17845,
2000-12-07, 01:43:00,VALID,916.642,VALID,0,VALID,97.7343,VALID,0,VALID,19.5777,VALID,86,VALID,0.501402,
2000-12-07, 01:44:00,VALID,916.654,VALID,0,VALID,97.8042,VALID,0,VALID,19.5749,VALID,84,VALID,0.504523,
2000-12-07, 01:45:00,VALID,916.643,VALID,0,VALID,97.869,VALID,0.0169808,VALID,19.565,VALID,85,VALID,0.449519,
2000-12-07, 01:46:00,VALID,916.629,VALID,0,VALID,97.8601,VALID,0.0169808,VALID,19.5421,VALID,85,VALID,0.55332,
2000-12-07, 01:47:00,VALID,916.636,VALID,0,VALID,97.9364,VALID,0,VALID,19.5456,VALID,86,VALID,0.642736,
2000-12-07, 01:48:00,VALID,916.615,VALID,0,VALID,97.9682,VALID,0.0169808,VALID,19.5421,VALID,81,VALID,0.488672,
2000-12-07, 01:49:00,VALID,916.613,VALID,0,VALID,98.0115,VALID,0.0169808,VALID,19.5456,VALID,83,VALID,0.599159,
2000-12-07, 01:50:00,VALID,916.601,VALID,0,VALID,98.0534,VALID,0,VALID,19.5489,VALID,103,VALID,0.614926,
2000-12-07, 01:51:00,VALID,916.578,VALID,0,VALID,98.1628,VALID,0.0169808,VALID,19.5809,VALID,105,VALID,0.414063,
2000-12-07, 01:52:00,VALID,916.567,VALID,0,VALID,98.1615,VALID,-0.0339617,VALID,19.5946,VALID,96,VALID,0.609581,
2000-12-07, 01:53:00,VALID,916.544,VALID,0,VALID,98.159,VALID,0,VALID,19.5682,VALID,88,VALID,0.639824,
2000-12-07, 01:54:00,VALID,916.538,VALID,0,VALID,98.1488,VALID,0,VALID,19.562,VALID,73,VALID,0.686133,
2000-12-07, 01:55:00,VALID,916.52,VALID,0,VALID,98.145,VALID,0,VALID,19.5454,VALID,79,VALID,0.884079,
2000-12-07, 01:56:00,VALID,916.515,VALID,0,VALID,98.1348,VALID,0.0169808,VALID,19.5528,VALID,91,VALID,1.08984,
2000-12-07, 01:57:00,VALID,916.511,VALID,0,VALID,98.1742,VALID,0.0169808,VALID,19.5491,VALID,84,VALID,0.57472,
2000-12-07, 01:58:00,VALID,916.518,VALID,0,VALID,98.1691,VALID,0,VALID,19.5329,VALID,81,VALID,0.224095,
2000-12-07, 01:59:00,VALID,916.517,VALID,0.2,VALID,98.2391,VALID,0.0339617,VALID,19.5687,VALID,91,VALID,0.301683,
2000-12-07, 02:00:00,VALID,916.515,VALID,0,VALID,98.3141,VALID,0.0169808,VALID,19.5812,VALID,102,VALID,0.769531,
2000-12-07, 02:01:00,VALID,916.481,VALID,0.2,VALID,98.3243,VALID,0.0339617,VALID,19.5978,VALID,97,VALID,0.997596,
2000-12-07, 02:02:00,VALID,916.464,VALID,0,VALID,98.2912,VALID,0,VALID,19.5784,VALID,92,VALID,1.04395,
2000-12-07, 02:03:00,VALID,916.46,VALID,0.2,VALID,98.2747,VALID,0,VALID,19.5558,VALID,59,VALID,0.771959,
2000-12-07, 02:04:00,VALID,916.456,VALID,0.2,VALID,98.1564,VALID,0.0679233,VALID,19.4741,VALID,78,VALID,1.1543,
2000-12-07, 02:05:00,VALID,916.445,VALID,0,VALID,98.1768,VALID,0.0849042,VALID,19.4676,VALID,77,VALID,0.795873,
2000-12-07, 02:06:00,VALID,916.454,VALID,0,VALID,98.2009,VALID,0.0509425,VALID,19.4653,VALID,71,VALID,0.475123,
2000-12-07, 02:07:00,VALID,916.464,VALID,0,VALID,98.2569,VALID,0.0339617,VALID,19.4522,VALID,72,VALID,0.738782,
2000-12-07, 02:08:00,VALID,916.484,VALID,0.2,VALID,98.2365,VALID,0.0679233,VALID,19.4293,VALID,66,VALID,1.20518,
2000-12-07, 02:09:00,VALID,916.49,VALID,0,VALID,98.309,VALID,0.0679233,VALID,19.4229,VALID,94,VALID,1.35597,
2000-12-07, 02:10:00,VALID,916.477,VALID,0,VALID,98.3917,VALID,0.0169808,VALID,19.4293,VALID,89,VALID,1.04746,
2000-12-07, 02:11:00,VALID,916.474,VALID,0.2,VALID,98.4464,VALID,0.0339617,VALID,19.4624,VALID,103,VALID,0.572846,
2000-12-07, 02:12:00,VALID,916.463,VALID,0,VALID,98.4998,VALID,0.0339617,VALID,19.4644,VALID,244,VALID,0.480664,
2000-12-07, 02:13:00,VALID,916.462,VALID,0.2,VALID,98.4909,VALID,0.101885,VALID,19.4683,VALID,247,VALID,0.517428,
2000-12-07, 02:14:00,VALID,916.455,VALID,0,VALID,98.5099,VALID,0.0509425,VALID,19.4519,VALID,282,VALID,0.0222039,
2000-12-07, 02:15:00,VALID,916.472,VALID,0,VALID,98.5748,VALID,0.0339617,VALID,19.4683,VALID,121,VALID,0.483774,
2000-12-07, 02:16:00,VALID,916.469,VALID,0,VALID,98.6689,VALID,0.0509425,VALID,19.5138,VALID,125,VALID,0.108141,
2000-12-07, 02:17:00,VALID,916.466,VALID,0,VALID,98.6994,VALID,0,VALID,19.5399,VALID,105,VALID,0.38762,
2000-12-07, 02:18:00,VALID,916.464,VALID,0,VALID,98.6969,VALID,0.0339617,VALID,19.5364,VALID,101,VALID,0.796289,
2000-12-07, 02:19:00,VALID,916.459,VALID,0,VALID,98.7248,VALID,-0.0509425,VALID,19.5603,VALID,99,VALID,1.28695,
2000-12-07, 02:20:00,VALID,916.451,VALID,0,VALID,98.7121,VALID,-0.0339617,VALID,19.5411,VALID,96,VALID,0.926953,
2000-12-07, 02:21:00,VALID,916.452,VALID,0,VALID,98.7388,VALID,-0.0679233,VALID,19.5637,VALID,98,VALID,0.469952,
2000-12-07, 02:22:00,VALID,916.442,VALID,0,VALID,98.7274,VALID,-0.101885,VALID,19.5411,VALID,100,VALID,0.0600329,
2000-12-07, 02:23:00,VALID,916.424,VALID,0,VALID,98.7554,VALID,-0.0849042,VALID,19.5471,VALID,97,VALID,0.75,
2000-12-07, 02:24:00,VALID,916.409,VALID,0,VALID,98.7566,VALID,-0.0679233,VALID,19.5541,VALID,96,VALID,0.738692,
2000-12-07, 02:25:00,VALID,916.382,VALID,0,VALID,98.7744,VALID,-0.0679233,VALID,19.5469,VALID,92,VALID,1.13522,
2000-12-07, 02:26:00,VALID,916.369,VALID,0,VALID,98.7668,VALID,-0.0849042,VALID,19.5603,VALID,96,VALID,1.19902,
2000-12-07, 02:27:00,VALID,916.365,VALID,0,VALID,98.8062,VALID,-0.0679233,VALID,19.5767,VALID,95,VALID,1.64569,
2000-12-07, 02:28:00,VALID,916.341,VALID,0,VALID,98.8393,VALID,-0.0849042,VALID,19.5923,VALID,94,VALID,1.73828,
2000-12-07, 02:29:00,VALID,916.326,VALID,0,VALID,98.8316,VALID,-0.0169808,VALID,19.6122,VALID,92,VALID,1.64203,
2000-12-07, 02:30:00,VALID,916.333,VALID,0,VALID,98.8139,VALID,-0.0679233,VALID,19.6122,VALID,99,VALID,1.39042,
2000-12-07, 02:31:00,VALID,916.312,VALID,0,VALID,98.8049,VALID,-0.0339617,VALID,19.5891,VALID,92,VALID,1.84655,
2000-12-07, 02:32:00,VALID,916.286,VALID,0,VALID,98.777,VALID,-0.0509425,VALID,19.5528,VALID,93,VALID,2.16961,
2000-12-07, 02:33:00,VALID,916.274,VALID,0,VALID,98.7808,VALID,-0.0339617,VALID,19.5665,VALID,99,VALID,0.811899,
2000-12-07, 02:34:00,VALID,916.276,VALID,0,VALID,98.7935,VALID,-0.0339617,VALID,19.5573,VALID,88,VALID,2.0623,
2000-12-07, 02:35:00,VALID,916.267,VALID,0,VALID,98.7795,VALID,0,VALID,19.5508,VALID,95,VALID,1.19109,
2000-12-07, 02:36:00,VALID,916.278,VALID,0,VALID,98.796,VALID,-0.0169808,VALID,19.5635,VALID,84,VALID,1.05703,
2000-12-07, 02:37:00,VALID,916.281,VALID,0,VALID,98.7973,VALID,-0.0169808,VALID,19.5605,VALID,90,VALID,1.65176,
2000-12-07, 02:38:00,VALID,916.287,VALID,0,VALID,98.7833,VALID,0,VALID,19.5603,VALID,92,VALID,1.23808,
2000-12-07, 02:39:00,VALID,916.292,VALID,0,VALID,98.7693,VALID,-0.0679233,VALID,19.5667,VALID,81,VALID,0.236178,
2000-12-07, 02:40:00,VALID,916.296,VALID,0,VALID,98.7643,VALID,-0.0509425,VALID,19.5605,VALID,62,VALID,0.570107,
2000-12-07, 02:41:00,VALID,916.3,VALID,0,VALID,98.7732,VALID,-0.0169808,VALID,19.5797,VALID,100,VALID,0.716146,
2000-12-07, 02:42:00,VALID,916.31,VALID,0,VALID,98.7541,VALID,-0.0169808,VALID,19.57,VALID,94,VALID,0.356641,
2000-12-07, 02:43:00,VALID,916.29,VALID,0,VALID,98.7299,VALID,-0.0169808,VALID,19.5635,VALID,82,VALID,0.279139,
2000-12-07, 02:44:00,VALID,916.263,VALID,0,VALID,98.7439,VALID,0,VALID,19.5799,VALID,99,VALID,0.158008,
2000-12-07, 02:45:00,VALID,916.252,VALID,0,VALID,98.7579,VALID,-0.0339617,VALID,19.5834,VALID,97,VALID,0.169671,
2000-12-07, 02:46:00,VALID,916.249,VALID,0,VALID,98.7604,VALID,-0.0509425,VALID,19.5864,VALID,78,VALID,0.284334,
2000-12-07, 02:47:00,VALID,916.227,VALID,0,VALID,98.7299,VALID,0,VALID,19.5727,VALID,301,VALID,0.226162,
2000-12-07, 02:48:00,VALID,916.233,VALID,0,VALID,98.7261,VALID,-0.0679233,VALID,19.5931,VALID,283,VALID,0,
2000-12-07, 02:49:00,VALID,916.229,VALID,0,VALID,98.7503,VALID,-0.0509425,VALID,19.5861,VALID,278,VALID,0,
2000-12-07, 02:50:00,VALID,916.238,VALID,0,VALID,98.7719,VALID,-0.0679233,VALID,19.6058,VALID,258,VALID,0,
2000-12-07, 02:51:00,VALID,916.23,VALID,0,VALID,98.7592,VALID,-0.0509425,VALID,19.6055,VALID,289,VALID,0,
2000-12-07, 02:52:00,VALID,916.218,VALID,0,VALID,98.777,VALID,-0.0849042,VALID,19.609,VALID,277,VALID,0,
2000-12-07, 02:53:00,VALID,916.227,VALID,0,VALID,98.7604,VALID,-0.0509425,VALID,19.6025,VALID,247,VALID,0,
2000-12-07, 02:54:00,VALID,916.212,VALID,0,VALID,98.7986,VALID,-0.0509425,VALID,19.6348,VALID,132,VALID,0,
2000-12-07, 02:55:00,VALID,916.192,VALID,0,VALID,98.7846,VALID,-0.0169808,VALID,19.648,VALID,139,VALID,0,
2000-12-07, 02:56:00,VALID,916.197,VALID,0,VALID,98.735,VALID,-0.0169808,VALID,19.6115,VALID,258,VALID,0,
2000-12-07, 02:57:00,VALID,916.179,VALID,0,VALID,98.763,VALID,-0.0339617,VALID,19.6316,VALID,99,VALID,0.995593,
2000-12-07, 02:58:00,VALID,916.177,VALID,0,VALID,98.7859,VALID,-0.0509425,VALID,19.6445,VALID,122,VALID,0.149023,
2000-12-07, 02:59:00,VALID,916.171,VALID,0,VALID,98.7833,VALID,-0.0169808,VALID,19.6408,VALID,195,VALID,0,
2000-12-07, 03:00:00,VALID,916.16,VALID,0,VALID,98.8062,VALID,-0.0169808,VALID,19.6438,VALID,153,VALID,0.235156,
2000-12-07, 03:01:00,VALID,916.136,VALID,0,VALID,98.8126,VALID,-0.0339617,VALID,19.6443,VALID,146,VALID,0.182292,
2000-12-07, 03:02:00,VALID,916.116,VALID,0,VALID,98.81,VALID,-0.0339617,VALID,19.6406,VALID,171,VALID,0.0213816,
2000-12-07, 03:03:00,VALID,916.122,VALID,0,VALID,98.81,VALID,-0.0849042,VALID,19.6445,VALID,145,VALID,0.130008,
2000-12-07, 03:04:00,VALID,916.115,VALID,0,VALID,98.8253,VALID,-0.0849042,VALID,19.6639,VALID,77,VALID,0,
2000-12-07, 03:05:00,VALID,916.124,VALID,0,VALID,98.8062,VALID,-0.0679233,VALID,19.6468,VALID,133,VALID,0.0925481,
2000-12-07, 03:06:00,VALID,916.11,VALID,0,VALID,98.7986,VALID,-0.0849042,VALID,19.65,VALID,106,VALID,0.764258,
2000-12-07, 03:07:00,VALID,916.074,VALID,0,VALID,98.8062,VALID,-0.101885,VALID,19.6505,VALID,18,VALID,0.478463,
2000-12-07, 03:08:00,VALID,916.069,VALID,0,VALID,98.8278,VALID,-0.0679233,VALID,19.6701,VALID,94,VALID,0.921875,
2000-12-07, 03:09:00,VALID,916.059,VALID,0,VALID,98.8316,VALID,-0.0509425,VALID,19.6567,VALID,115,VALID,0.692909,
2000-12-07, 03:10:00,VALID,916.059,VALID,0,VALID,98.8444,VALID,-0.0509425,VALID,19.6766,VALID,206,VALID,0.237459,
2000-12-07, 03:11:00,VALID,916.072,VALID,0,VALID,98.7922,VALID,-0.101885,VALID,19.6403,VALID,299,VALID,0.265825,
2000-12-07, 03:12:00,VALID,916.077,VALID,0,VALID,98.8037,VALID,-0.101885,VALID,19.6376,VALID,29,VALID,0.00205592,
2000-12-07, 03:13:00,VALID,916.072,VALID,0,VALID,98.8431,VALID,-0.0679233,VALID,19.6505,VALID,65,VALID,0.21855,
2000-12-07, 03:14:00,VALID,916.079,VALID,0,VALID,98.8736,VALID,-0.0679233,VALID,19.6865,VALID,50,VALID,0.0759766,
2000-12-07, 03:15:00,VALID,916.061,VALID,0,VALID,98.8698,VALID,-0.0849042,VALID,19.6739,VALID,93,VALID,0.0990287,
2000-12-07, 03:16:00,VALID,916.061,VALID,0,VALID,98.8062,VALID,-0.0849042,VALID,19.6468,VALID,146,VALID,0.446484,
2000-12-07, 03:17:00,VALID,916.054,VALID,0,VALID,98.8571,VALID,-0.0679233,VALID,19.6674,VALID,112,VALID,0.145232,
2000-12-07, 03:18:00,VALID,916.058,VALID,0,VALID,98.8596,VALID,-0.0679233,VALID,19.6674,VALID,161,VALID,0.0121299,
2000-12-07, 03:19:00,VALID,916.086,VALID,0,VALID,98.8596,VALID,-0.0509425,VALID,19.6403,VALID,265,VALID,0.235978,
2000-12-07, 03:20:00,VALID,916.083,VALID,0,VALID,98.8469,VALID,-0.101885,VALID,19.6408,VALID,255,VALID,0.499178,
2000-12-07, 03:21:00,VALID,916.089,VALID,0,VALID,98.8787,VALID,-0.0509425,VALID,19.6341,VALID,147,VALID,0.601763,
2000-12-07, 03:22:00,VALID,916.114,VALID,0,VALID,98.9308,VALID,-0.101885,VALID,19.6699,VALID,98,VALID,0.345313,
2000-12-07, 03:23:00,VALID,916.11,VALID,0,VALID,98.9436,VALID,-0.0679233,VALID,19.6863,VALID,115,VALID,0,
2000-12-07, 03:24:00,VALID,916.115,VALID,0,VALID,98.9486,VALID,-0.0339617,VALID,19.6923,VALID,181,VALID,0.0232422,
2000-12-07, 03:25:00,VALID,916.111,VALID,0,VALID,98.9245,VALID,-0.0509425,VALID,19.693,VALID,241,VALID,0.504607,
2000-12-07, 03:26:00,VALID,916.097,VALID,0,VALID,98.9054,VALID,-0.0849042,VALID,19.6667,VALID,248,VALID,0.159334,
2000-12-07, 03:27:00,VALID,916.096,VALID,0,VALID,98.9194,VALID,-0.0849042,VALID,19.6672,VALID,239,VALID,0.00861378,
2000-12-07, 03:28:00,VALID,916.084,VALID,0,VALID,98.9626,VALID,-0.0509425,VALID,19.6761,VALID,136,VALID,0.342311,
2000-12-07, 03:29:00,VALID,916.059,VALID,0,VALID,98.9728,VALID,-0.101885,VALID,19.7027,VALID,94,VALID,0.475761,
2000-12-07, 03:30:00,VALID,916.061,VALID,0,VALID,98.9525,VALID,-0.0849042,VALID,19.6729,VALID,71,VALID,0.0648438,
2000-12-07, 03:31:00,VALID,916.031,VALID,0,VALID,98.9639,VALID,-0.0849042,VALID,19.6768,VALID,102,VALID,0.359586,
2000-12-07, 03:32:00,VALID,916.022,VALID,0,VALID,98.9664,VALID,-0.0679233,VALID,19.6766,VALID,61,VALID,0.24668,
2000-12-07, 03:33:00,VALID,916.013,VALID,0,VALID,98.9677,VALID,-0.0849042,VALID,19.686,VALID,84,VALID,0.301482,
2000-12-07, 03:34:00,VALID,916.008,VALID,0,VALID,98.9779,VALID,0.0339617,VALID,19.7044,VALID,83,VALID,0.625617,
2000-12-07, 03:35:00,VALID,916.009,VALID,0,VALID,98.9804,VALID,0.0169808,VALID,19.7007,VALID,72,VALID,0.117188,
2000-12-07, 03:36:00,VALID,916.008,VALID,0,VALID,98.9753,VALID,0.0509425,VALID,19.6975,VALID,131,VALID,0.260074,